KLM636 KLAS-EHAM

Flight info

Callsign KLM636
Flight time N/A
Altitude 36000
Route N0481F360 RATPK3 FRNCK DCT WINEN/N0482F350 DCT KU54Q/N0483F370 DCT KD63U DCT KD75A DCT KP81E DCT KP87I DCT KP03M DCT 48N080W 52N070W/N0487F390 DCT YWK DCT DORYY/M084F390 DCT 58N050W 59N040W 59N030W 59N020W DCT GOMUP/N0481F390 DCT GINGA/N0483F410 DCT ERKIT N110 DOLAS L603 LAMSO LAMS2A
Aircraft B772/H-SDE2E3FGHIJ3J5P2RWXYZ/LB1D1

Departure

Time 2026-05-06 19:01
Airport Harry Reid International Airport (KLAS)

Arrival

Time N/A
Airport Amsterdam Airport Schiphol (EHAM)
Time Latitude Longitude Altitude Speed Heading
2026-05-06 17:11 36.08538 -115.13364 2097 ft 0 kts
2026-05-06 18:51 36.08530 -115.13364 2097 ft 4 kts
2026-05-06 18:51 36.08503 -115.13364 2097 ft 4 kts
2026-05-06 18:51 36.08476 -115.13364 2097 ft 4 kts 360°
2026-05-06 18:51 36.08449 -115.13363 2097 ft 4 kts 360°
2026-05-06 18:52 36.08422 -115.13363 2099 ft 4 kts 359°
2026-05-06 18:52 36.08395 -115.13363 2097 ft 4 kts 359°
2026-05-06 18:52 36.08373 -115.13362 2098 ft 4 kts 351°
2026-05-06 18:52 36.08347 -115.13353 2097 ft 4 kts 331°
2026-05-06 18:53 36.08326 -115.13334 2096 ft 2 kts 316°
2026-05-06 18:53 36.08325 -115.13333 2096 ft 1 kts 316°
2026-05-06 18:56 36.08328 -115.13336 2096 ft 5 kts 315°
2026-05-06 18:56 36.08327 -115.13353 2096 ft 4 kts 239°
2026-05-06 18:56 36.08238 -115.13375 2094 ft 22 kts 182°
2026-05-06 18:57 36.08042 -115.13376 2094 ft 30 kts 178°
2026-05-06 18:57 36.07845 -115.13374 2094 ft 24 kts 180°
2026-05-06 18:57 36.07759 -115.13271 2092 ft 16 kts 90°
2026-05-06 18:57 36.07758 -115.13138 2088 ft 15 kts 90°
2026-05-06 18:58 36.07757 -115.13005 2081 ft 15 kts 90°
2026-05-06 18:58 36.07756 -115.12873 2074 ft 15 kts 91°
2026-05-06 18:58 36.07755 -115.12740 2071 ft 15 kts 90°
2026-05-06 18:58 36.07754 -115.12607 2066 ft 15 kts 90°
2026-05-06 18:59 36.07755 -115.12475 2062 ft 15 kts 90°
2026-05-06 18:59 36.07755 -115.12342 2059 ft 15 kts 90°
2026-05-06 18:59 36.07706 -115.12239 2056 ft 15 kts 167°
2026-05-06 18:59 36.07642 -115.12321 2056 ft 16 kts 263°
2026-05-06 19:00 36.07641 -115.12572 2066 ft 53 kts 270°
2026-05-06 19:00 36.07642 -115.13294 2091 ft 113 kts 270°
2026-05-06 19:00 36.07641 -115.14486 2103 ft 164 kts 270°
2026-05-06 19:00 36.07631 -115.16072 2266 ft 195 kts 272°
2026-05-06 19:01 36.07682 -115.17732 2876 ft 198 kts 274°
2026-05-06 19:01 36.07754 -115.19398 3788 ft 186 kts 274°
2026-05-06 19:01 36.07776 -115.21042 4216 ft 201 kts 269°
2026-05-06 19:01 36.07729 -115.22853 4398 ft 221 kts 269°
2026-05-06 19:02 36.07693 -115.24830 4580 ft 239 kts 270°
2026-05-06 19:02 36.07830 -115.26910 4793 ft 247 kts 293°
2026-05-06 19:02 36.08897 -115.28546 5206 ft 248 kts 332°
2026-05-06 19:02 36.10523 -115.29135 5716 ft 244 kts 351°
2026-05-06 19:03 36.12209 -115.29526 6176 ft 247 kts 348°
2026-05-06 19:03 36.13888 -115.29760 6724 ft 243 kts
2026-05-06 19:03 36.15475 -115.28996 7109 ft 253 kts 35°
2026-05-06 19:03 36.16685 -115.27343 7360 ft 267 kts 56°
2026-05-06 19:04 36.17586 -115.25289 7691 ft 276 kts 63°
2026-05-06 19:04 36.18313 -115.23067 8208 ft 280 kts 67°
2026-05-06 19:04 36.18995 -115.20805 8782 ft 280 kts 66°
2026-05-06 19:04 36.19610 -115.18557 9254 ft 281 kts 77°
2026-05-06 19:05 36.19696 -115.16106 9496 ft 290 kts 89°
2026-05-06 19:05 36.19655 -115.13590 9991 ft 292 kts 87°
2026-05-06 19:05 36.19640 -115.11048 10302 ft 302 kts 87°
2026-05-06 19:05 36.19634 -115.08380 10396 ft 318 kts 87°
2026-05-06 19:06 36.19632 -115.05557 10513 ft 335 kts 87°
2026-05-06 19:06 36.19630 -115.02589 10667 ft 354 kts 87°
2026-05-06 19:06 36.19627 -114.99474 10993 ft 368 kts 87°
2026-05-06 19:06 36.19624 -114.96275 11603 ft 375 kts 87°
2026-05-06 19:07 36.19621 -114.93038 12359 ft 377 kts 87°
2026-05-06 19:07 36.19701 -114.89823 13049 ft 371 kts 78°
2026-05-06 19:07 36.20544 -114.86810 13569 ft 373 kts 58°
2026-05-06 19:07 36.22076 -114.84248 14169 ft 371 kts 49°
2026-05-06 19:08 36.23755 -114.81780 14731 ft 376 kts 49°
2026-05-06 19:08 36.25445 -114.79288 15362 ft 379 kts 49°
2026-05-06 19:08 36.27146 -114.76765 15999 ft 382 kts 49°
2026-05-06 19:08 36.28827 -114.74256 16570 ft 385 kts 49°
2026-05-06 19:09 36.30541 -114.71682 17100 ft 389 kts 49°
2026-05-06 19:09 36.32269 -114.69081 17677 ft 392 kts 49°
2026-05-06 19:09 36.34014 -114.66450 18267 ft 396 kts 49°
2026-05-06 19:09 36.35768 -114.63801 18740 ft 398 kts 49°
2026-05-06 19:10 36.37622 -114.61241 19177 ft 398 kts 41°
2026-05-06 19:10 36.39808 -114.59111 19544 ft 402 kts 35°
2026-05-06 19:10 36.42094 -114.57078 20024 ft 405 kts 35°
2026-05-06 19:10 36.44366 -114.55023 20556 ft 405 kts 36°
2026-05-06 19:11 36.46638 -114.52917 21050 ft 407 kts 36°
2026-05-06 19:11 36.48873 -114.50809 21505 ft 410 kts 36°
2026-05-06 19:11 36.51149 -114.48645 21957 ft 412 kts 36°
2026-05-06 19:11 36.53426 -114.46476 22446 ft 413 kts 36°
2026-05-06 19:12 36.55751 -114.44358 22919 ft 415 kts 33°
2026-05-06 19:12 36.58184 -114.42406 23327 ft 417 kts 31°
2026-05-06 19:12 36.60673 -114.40520 23718 ft 420 kts 30°
2026-05-06 19:12 36.63186 -114.38641 24110 ft 421 kts 30°
2026-05-06 19:13 36.65702 -114.36752 24501 ft 423 kts 30°
2026-05-06 19:13 36.68232 -114.34832 24862 ft 425 kts 31°
2026-05-06 19:13 36.70723 -114.32924 25238 ft 426 kts 31°
2026-05-06 19:13 36.73239 -114.30982 25615 ft 427 kts 31°
2026-05-06 19:14 36.75773 -114.29017 25987 ft 428 kts 31°
2026-05-06 19:14 36.78309 -114.27046 26333 ft 430 kts 31°
2026-05-06 19:14 36.80860 -114.25059 26677 ft 432 kts 31°
2026-05-06 19:14 36.83411 -114.23071 27030 ft 433 kts 31°
2026-05-06 19:15 36.85977 -114.21070 27363 ft 435 kts 31°
2026-05-06 19:15 36.88540 -114.19069 27706 ft 436 kts 31°
2026-05-06 19:15 36.91128 -114.17082 28032 ft 438 kts 29°
2026-05-06 19:15 36.93812 -114.15257 28340 ft 439 kts 27°
2026-05-06 19:16 36.96530 -114.13509 28632 ft 440 kts 27°
2026-05-06 19:16 36.99265 -114.11779 28914 ft 442 kts 26°
2026-05-06 19:16 37.02016 -114.10038 29185 ft 443 kts 27°
2026-05-06 19:16 37.04770 -114.08280 29422 ft 445 kts 27°
2026-05-06 19:17 37.07530 -114.06505 29595 ft 448 kts 27°
2026-05-06 19:17 37.10316 -114.04701 29832 ft 450 kts 27°
2026-05-06 19:17 37.13054 -114.02922 30129 ft 449 kts 27°
2026-05-06 19:17 37.15822 -114.01117 30483 ft 446 kts 27°
2026-05-06 19:18 37.18567 -113.99326 30847 ft 444 kts 27°
2026-05-06 19:18 37.21301 -113.97540 31169 ft 442 kts 27°
2026-05-06 19:18 37.24027 -113.95758 31454 ft 441 kts 27°
2026-05-06 19:18 37.26751 -113.93977 31727 ft 441 kts 27°
2026-05-06 19:19 37.29470 -113.92197 32019 ft 440 kts 27°
2026-05-06 19:19 37.32182 -113.90421 32362 ft 437 kts 27°
2026-05-06 19:19 37.34878 -113.88655 32724 ft 436 kts 27°
2026-05-06 19:19 37.37565 -113.86897 33029 ft 435 kts 27°
2026-05-06 19:20 37.40243 -113.85136 33339 ft 433 kts 27°
2026-05-06 19:20 37.42886 -113.83396 33606 ft 433 kts 27°
2026-05-06 19:20 37.45554 -113.81641 33893 ft 432 kts 27°
2026-05-06 19:20 37.48220 -113.79887 34147 ft 431 kts 27°
2026-05-06 19:21 37.50879 -113.78136 34364 ft 431 kts 27°
2026-05-06 19:21 37.53527 -113.76391 34589 ft 430 kts 27°
2026-05-06 19:21 37.56183 -113.74639 34843 ft 429 kts 27°
2026-05-06 19:21 37.58831 -113.72891 34964 ft 431 kts 27°
2026-05-06 19:22 37.61503 -113.71126 34998 ft 432 kts 27°
2026-05-06 19:22 37.66782 -113.67633 35024 ft 429 kts 27°
2026-05-06 19:23 37.72042 -113.64147 35025 ft 425 kts 27°
2026-05-06 19:23 37.77272 -113.60675 35031 ft 424 kts 27°
2026-05-06 19:24 37.82487 -113.57208 35033 ft 423 kts 27°
2026-05-06 19:24 37.87718 -113.53726 35031 ft 424 kts 27°
2026-05-06 19:25 37.92377 -113.49276 35035 ft 428 kts 45°
2026-05-06 19:25 37.95735 -113.42939 35019 ft 439 kts 62°
2026-05-06 19:26 37.98028 -113.35722 35039 ft 443 kts 63°
2026-05-06 19:26 38.00294 -113.28479 35037 ft 445 kts 63°
2026-05-06 19:27 38.02605 -113.21187 35044 ft 446 kts 63°
2026-05-06 19:27 38.04937 -113.13892 35042 ft 446 kts 63°
2026-05-06 19:28 38.07274 -113.06587 35061 ft 446 kts 63°
2026-05-06 19:28 38.09605 -112.99285 35065 ft 445 kts 63°
2026-05-06 19:29 38.11920 -112.92009 35057 ft 444 kts 63°
2026-05-06 19:29 38.14231 -112.84731 35059 ft 443 kts 63°
2026-05-06 19:30 38.16140 -112.78701 35079 ft 442 kts 63°
2026-05-06 19:30 38.18802 -112.70275 35057 ft 442 kts 63°
2026-05-06 19:31 38.21091 -112.63010 35048 ft 441 kts 63°
2026-05-06 19:31 38.24118 -112.53369 35040 ft 440 kts 63°
2026-05-06 19:32 38.26387 -112.46125 35047 ft 441 kts 63°
2026-05-06 19:32 38.28655 -112.38867 35066 ft 442 kts 63°
2026-05-06 19:33 38.30924 -112.31584 35042 ft 442 kts 63°
2026-05-06 19:33 38.33178 -112.24330 35046 ft 443 kts 63°
2026-05-06 19:34 38.35447 -112.17008 35035 ft 444 kts 63°
2026-05-06 19:34 38.37706 -112.09690 35051 ft 444 kts 63°
2026-05-06 19:35 38.39965 -112.02359 35038 ft 443 kts 63°
2026-05-06 19:35 38.42216 -111.95040 35030 ft 444 kts 63°
2026-05-06 19:36 38.44466 -111.87706 35037 ft 443 kts 63°
2026-05-06 19:36 38.46709 -111.80373 35037 ft 444 kts 63°
2026-05-06 19:37 38.48947 -111.73031 35025 ft 444 kts 63°
2026-05-06 19:37 38.51180 -111.65686 35033 ft 443 kts 63°
2026-05-06 19:38 38.53407 -111.58347 35031 ft 443 kts 63°
2026-05-06 19:38 38.55615 -111.51050 35018 ft 443 kts 63°
2026-05-06 19:39 38.57830 -111.43708 35022 ft 443 kts 63°
2026-05-06 19:39 38.60043 -111.36359 34995 ft 443 kts 63°
2026-05-06 19:40 38.62248 -111.29007 34999 ft 443 kts 63°
2026-05-06 19:40 38.64451 -111.21647 35012 ft 443 kts 63°
2026-05-06 19:41 38.66649 -111.14284 35002 ft 443 kts 63°
2026-05-06 19:41 38.68834 -111.06944 35002 ft 444 kts 63°
2026-05-06 19:42 38.71023 -110.99559 34990 ft 442 kts 63°
2026-05-06 19:42 38.73213 -110.92170 34991 ft 442 kts 63°
2026-05-06 19:43 38.75391 -110.84800 34998 ft 443 kts 63°
2026-05-06 19:43 38.77563 -110.77421 35007 ft 443 kts 63°
2026-05-06 19:44 38.79735 -110.70023 35012 ft 443 kts 63°
2026-05-06 19:44 38.81890 -110.62664 35011 ft 443 kts 63°
2026-05-06 19:45 38.84060 -110.55233 35027 ft 444 kts 63°
2026-05-06 19:45 38.86214 -110.47840 35018 ft 444 kts 63°
2026-05-06 19:46 38.88377 -110.40392 35031 ft 445 kts 62°
2026-05-06 19:46 38.90532 -110.32949 35037 ft 445 kts 63°
2026-05-06 19:47 38.92683 -110.25498 35035 ft 445 kts 63°
2026-05-06 19:47 38.94833 -110.18033 35041 ft 445 kts 63°
2026-05-06 19:48 38.96976 -110.10571 35077 ft 446 kts 62°
2026-05-06 19:48 38.99104 -110.03143 35076 ft 446 kts 62°
2026-05-06 19:49 39.01570 -109.95917 35073 ft 437 kts 56°
2026-05-06 19:49 39.04386 -109.88972 35091 ft 438 kts 56°
2026-05-06 19:50 39.07187 -109.81997 35083 ft 438 kts 56°
2026-05-06 19:50 39.09973 -109.75017 35070 ft 439 kts 56°
2026-05-06 19:51 39.12731 -109.68064 35073 ft 438 kts 56°
2026-05-06 19:51 39.15504 -109.61056 35087 ft 438 kts 56°
2026-05-06 19:52 39.18268 -109.54060 35092 ft 438 kts 56°
2026-05-06 19:52 39.21028 -109.47060 35066 ft 438 kts 56°
2026-05-06 19:53 39.23784 -109.40054 35073 ft 438 kts 56°
2026-05-06 19:53 39.26533 -109.33044 35069 ft 438 kts 56°
2026-05-06 19:54 39.29263 -109.26066 35079 ft 438 kts 56°
2026-05-06 19:54 39.32000 -109.19059 35072 ft 437 kts 56°
2026-05-06 19:55 39.34732 -109.12047 35069 ft 436 kts 56°
2026-05-06 19:55 39.37462 -109.05025 35080 ft 437 kts 56°
2026-05-06 19:56 39.40186 -108.98004 35067 ft 437 kts 56°
2026-05-06 19:56 39.42908 -108.90969 35063 ft 437 kts 56°
2026-05-06 19:57 39.45631 -108.83914 35072 ft 437 kts 56°
2026-05-06 19:57 39.48325 -108.76918 35102 ft 437 kts 56°
2026-05-06 19:58 39.51037 -108.69866 35070 ft 436 kts 56°
2026-05-06 19:58 39.53734 -108.62825 35058 ft 437 kts 56°
2026-05-06 19:59 39.56433 -108.55765 35088 ft 437 kts 56°
2026-05-06 19:59 39.59112 -108.48743 35080 ft 437 kts 56°
2026-05-06 20:00 39.61808 -108.41659 35118 ft 439 kts 57°
2026-05-06 20:00 39.64520 -108.34524 35084 ft 441 kts 57°